User: anonymous   Login
Location: Champignolles
(47.0543°N, 4.5663°E)
Time: 16:49:11
(UTC+00:00)
Language:

CZ-2D R/B - Orbit

View from above orbital plane
View from above orbital plane
View from above satellite
View from above satellite

Ground track
Ground track

The orbit data is extracted from the following two-line orbital elements,

1 28738U 05024B   21062.64728168  .00000700  00000-0  44009-4 0  9990
2 28738  97.3682  82.3949 0012169  15.8740 344.2870 15.12290462860570
Epoch (UTC): 03 March 2021 15:32:05
Eccentricity: 0.0012169
inclination: 97.3682°
perigee height: 521 km
apogee height: 537 km
right ascension of ascending node: 82.3949°
argument of perigee: 15.8740°
revolutions per day: 15.12290462
mean anomaly at epoch: 344.2870°
orbit number at epoch: 86057

The dashed part of the orbit path shows where the satellite is in the earth's shadow,  

DLR